GEFSMW_con_probscp_300.txt.gz
Probability
4 5 6 7 6 4 3 3 3 3 4 4 4 3 2 1 0 0 1 0 0 1 1 2 3 4 6 8 8 6 6 6 5 4 3 2 1 0 0 0 0 0 0
6 6 7 8 7 4 3 3 4 4 4 5 4 3 2 1 0 1 2 1 1 1 2 2 3 4 6 8 8 7 5 5 5 4 3 3 2 1 0 0 0 0 0
7 8 9 10 9 5 3 4 5 5 6 6 5 3 3 1 1 2 3 3 2 2 3 3 3 4 6 7 7 6 4 4 5 4 4 3 2 1 1 0 0 0 0
8 9 11 13 11 6 3 5 7 7 7 7 6 5 4 3 2 4 5 4 3 3 3 3 4 5 6 5 4 4 3 4 4 4 4 4 2 1 0 0 0 0 0
7 8 10 13 11 6 3 4 7 7 8 8 8 7 6 4 4 6 7 5 4 3 4 4 4 5 5 4 3 3 4 3 3 4 5 4 2 1 0 0 0 0 0
6 6 9 10 9 5 3 4 6 9 9 10 10 10 8 7 7 8 7 5 4 4 5 5 5 5 4 4 3 4 4 3 3 4 4 3 2 1 0 0 0 0 0
7 7 8 9 7 4 3 5 8 11 11 10 11 11 10 9 9 8 7 6 4 5 5 5 4 4 4 4 3 3 4 3 2 2 2 3 2 1 1 0 0 0 0
8 8 8 8 5 3 3 5 10 14 13 11 11 11 10 8 8 9 8 6 6 5 4 4 3 3 4 4 4 4 3 2 1 0 1 2 3 3 2 1 1 1 1
9 9 8 7 4 3 3 5 9 12 13 11 10 10 10 9 10 10 8 7 7 4 2 2 3 3 3 4 6 5 4 2 2 1 2 3 4 4 3 3 2 2 2
9 9 8 6 5 4 3 4 6 9 10 9 9 10 11 13 12 10 8 7 5 2 1 1 2 3 4 5 7 6 4 3 3 3 2 2 3 3 3 3 3 3 3
10 9 9 8 7 7 5 4 4 6 8 9 8 9 13 15 14 11 8 6 4 2 2 3 4 5 6 6 6 4 4 4 4 4 2 1 1 1 2 4 4 4 4
10 10 12 13 12 10 7 4 4 5 9 12 10 9 12 13 13 11 9 7 5 3 3 5 7 8 7 5 4 4 4 5 4 4 3 2 1 1 3 4 4 4 4
12 15 18 19 16 12 8 6 6 7 11 15 14 11 11 12 12 11 10 8 7 6 5 6 8 9 7 5 4 5 5 4 4 4 4 3 2 2 3 4 4 4 3
16 18 21 21 17 12 10 10 11 11 15 19 18 15 13 12 11 11 9 7 7 7 8 8 9 10 9 7 6 6 5 4 4 3 3 2 1 1 2 3 4 3 2
17 19 22 22 18 14 15 16 15 17 21 24 23 20 17 12 10 11 11 9 7 8 10 11 11 12 11 9 8 7 7 7 6 5 4 2 1 0 1 1 2 2 2
15 17 19 20 19 18 20 21 20 22 27 29 28 25 20 14 12 13 14 13 11 11 13 14 14 14 12 9 7 7 8 9 9 9 8 5 3 2 1 1 0 1 1
12 14 16 16 17 20 24 26 26 27 30 32 31 29 25 22 19 18 17 16 14 13 14 15 15 16 14 9 6 5 7 10 12 13 11 8 5 5 5 4 2 2 2
12 13 13 13 14 19 27 31 32 33 34 34 36 35 32 29 28 26 23 19 15 13 14 16 18 19 16 9 4 3 6 10 13 13 12 10 8 7 7 7 7 6 6
14 12 11 13 15 20 28 34 37 38 38 39 40 40 37 35 34 32 30 25 18 14 15 18 20 20 16 8 2 2 7 12 13 13 11 10 9 7 6 9 10 10 10
17 15 14 16 20 25 31 35 37 39 41 41 43 43 41 39 38 37 34 30 23 17 16 19 21 19 15 8 2 2 8 13 13 13 13 10 7 5 4 7 12 12 12
19 19 20 21 25 30 35 36 36 39 42 43 44 44 41 39 41 41 36 31 27 22 20 21 21 20 16 10 3 3 8 12 14 16 15 11 6 2 1 4 9 10 9
20 21 23 24 26 30 36 39 38 39 41 43 44 43 40 39 40 41 37 32 29 26 24 23 23 22 18 12 5 3 5 10 15 18 17 13 6 2 0 2 4 4 3
24 24 24 24 24 27 34 39 40 40 40 41 42 41 40 39 39 39 37 32 29 27 25 23 23 22 19 14 10 5 3 6 12 17 16 10 4 1 0 0 1 1 2
30 28 26 24 22 25 31 36 40 40 39 39 40 39 38 37 37 37 34 30 27 25 24 24 23 22 20 17 14 10 7 6 9 13 12 6 3 3 3 3 3 4 4
31 30 27 24 22 25 30 34 37 40 40 40 40 38 35 34 35 34 29 25 22 21 21 22 21 20 18 15 14 13 11 10 10 11 9 7 6 6 7 7 7 7 7
29 28 26 24 23 26 30 33 35 39 41 41 41 38 34 34 35 31 24 19 17 16 16 17 18 17 14 12 11 12 11 10 10 10 9 8 7 8 8 10 10 9 9

GEFSMW_con_probscp_306.txt.gz
Probability
9 9 9 6 7 10 14 14 12 9 10 11 10 7 5 3 4 6 9 9 8 11 14 14 14 11 11 15 18 17 12 9 8 6 4 2 1 3 3 2 1 1 1
11 13 12 9 9 11 14 16 15 12 11 11 9 7 5 4 5 8 10 9 9 11 14 17 15 12 11 14 17 17 14 11 9 8 6 2 1 2 2 2 2 1 2
13 16 16 13 11 11 13 16 17 15 12 11 8 6 6 5 7 9 10 9 10 13 17 19 18 14 12 12 13 14 13 11 10 9 7 4 3 2 1 2 2 3 3
12 15 17 14 11 9 11 15 18 16 13 10 8 7 7 7 8 9 10 10 12 15 18 19 18 15 12 10 9 10 11 10 9 8 7 6 4 2 1 1 2 4 5
12 15 17 16 11 8 11 17 20 17 13 11 10 10 10 8 9 10 11 12 14 16 17 18 17 15 13 11 10 9 9 10 9 8 7 6 4 3 2 1 2 4 4
14 16 18 16 11 8 11 19 24 21 16 13 12 13 12 10 10 11 13 14 15 16 17 18 18 18 16 14 13 13 12 12 12 10 8 5 4 5 4 2 2 3 4
15 17 19 16 12 10 13 22 29 28 22 18 16 15 14 12 12 14 16 16 15 16 18 20 22 21 18 17 16 16 15 15 14 12 9 5 5 6 5 3 3 3 3
15 17 19 18 15 15 18 25 32 34 29 24 21 17 15 14 15 17 19 18 16 17 20 23 24 22 18 17 17 17 17 16 14 12 9 6 6 7 6 4 4 3 2
15 15 16 17 18 20 23 27 34 37 33 28 23 17 15 16 18 21 22 19 17 17 20 23 23 20 17 17 17 17 17 15 13 11 10 9 8 7 6 5 5 5 4
14 13 13 14 16 20 25 31 36 38 35 30 24 18 16 19 22 25 25 23 20 19 20 21 21 18 17 16 16 17 17 16 14 12 11 10 8 6 5 4 5 7 6
14 12 12 13 15 17 24 32 36 38 36 32 28 24 22 24 26 27 26 25 24 22 21 21 21 19 17 15 15 17 17 16 15 13 11 10 8 7 5 4 5 7 8
15 15 14 16 19 22 27 33 37 38 38 37 34 32 29 29 29 28 26 26 25 23 22 22 23 20 17 16 16 17 17 15 15 14 13 11 10 9 7 5 7 9 9
22 24 25 27 30 33 36 38 39 38 38 39 38 36 34 32 31 30 29 28 26 24 24 25 24 20 18 18 19 18 16 15 15 16 16 15 14 13 10 8 9 10 9
30 33 39 42 43 44 44 43 41 39 39 40 39 39 39 36 34 33 32 31 29 27 27 27 24 20 19 20 20 19 17 16 17 18 18 17 15 13 11 10 11 10 10
30 36 45 49 49 49 48 47 46 45 43 40 40 43 43 40 37 36 36 34 32 31 29 26 23 20 18 18 18 17 16 18 19 19 18 16 13 11 10 9 9 9 10
27 33 43 48 49 50 50 51 53 51 46 40 39 43 44 42 41 40 38 37 37 35 31 27 24 21 18 15 14 13 15 19 21 21 19 14 10 9 8 7 6 6 6
27 32 41 46 47 48 50 51 55 55 49 43 41 43 44 44 43 42 40 41 42 40 35 29 27 25 21 15 10 9 13 18 21 23 22 16 12 11 10 7 5 3 3
29 32 37 41 44 47 49 50 51 52 49 46 45 45 45 46 46 46 46 47 46 44 39 33 31 29 25 16 7 5 10 16 22 24 24 20 17 13 11 11 9 8 7
28 29 30 34 40 46 51 50 48 47 46 46 46 48 48 48 50 51 52 52 50 46 43 39 36 33 28 17 6 4 10 18 23 24 21 19 17 12 10 12 15 15 14
26 27 28 32 40 48 52 51 48 47 47 46 48 51 52 53 54 56 57 55 52 48 46 44 41 37 32 21 8 5 13 22 26 24 19 14 11 9 7 11 16 17 17
28 30 32 37 44 49 51 51 51 51 52 52 53 54 55 55 56 59 60 58 54 50 48 47 45 41 35 24 10 5 12 21 25 25 21 14 8 5 4 9 14 14 13
31 33 37 41 45 49 49 49 50 54 56 56 55 55 53 50 53 59 61 59 56 51 49 48 47 43 36 25 13 5 6 13 20 23 20 15 8 3 1 4 8 8 7
30 33 38 41 44 47 48 47 48 51 55 55 52 49 47 47 51 58 59 58 56 51 47 47 46 42 36 27 16 7 3 5 12 15 14 10 6 2 1 2 2 3 5
31 33 37 39 42 44 45 45 45 46 49 49 47 45 45 46 51 55 55 54 53 49 45 45 45 42 36 27 17 9 5 4 7 9 9 8 5 4 4 4 3 4 6
35 35 36 37 39 42 43 44 44 44 44 43 41 42 43 45 46 46 43 43 43 39 35 35 37 36 30 20 12 8 7 6 7 9 12 12 10 9 9 9 8 7 8
37 36 35 35 37 41 42 43 43 44 43 41 38 38 40 43 42 37 31 30 31 27 21 22 27 29 23 12 6 5 6 6 6 9 14 16 15 14 13 12 11 9 8

GEFSMW_con_probscp_312.txt.gz
Probability
1 1 2 3 3 3 2 1 1 1 1 0 0 0 0 0 0 1 2 3 4 4 5 4 4 3 3 3 2 1 0 0 0 0 0 0 0 0 0 0 0 0 0
1 1 1 3 4 3 2 1 2 2 2 1 0 0 0 1 1 2 3 3 4 6 6 5 4 3 3 3 2 2 1 1 1 0 0 0 0 0 0 0 0 0 1
2 2 2 4 6 5 3 3 3 3 3 2 1 1 1 2 3 3 3 4 5 6 6 5 3 3 3 3 3 2 2 2 1 0 0 0 0 0 0 0 0 0 1
4 4 4 6 8 8 5 3 3 3 3 3 3 3 3 3 3 3 4 5 6 6 5 4 3 2 2 2 2 1 1 2 1 0 0 0 0 0 0 0 0 0 1
5 6 6 7 9 9 6 4 3 4 3 4 5 5 4 3 3 4 5 6 5 5 3 2 3 2 1 1 1 1 1 1 1 0 0 0 0 0 0 0 0 0 0
7 8 9 8 9 9 7 5 5 5 4 5 6 6 5 4 4 5 6 5 3 2 1 1 2 2 1 0 1 1 1 2 2 2 1 0 0 0 0 0 0 0 0
11 11 10 10 10 11 10 9 7 6 6 5 6 6 5 4 5 7 7 4 2 1 1 1 1 1 0 0 1 2 2 3 4 4 2 1 1 0 0 0 0 0 0
13 13 12 11 12 14 14 12 10 7 6 5 5 6 5 4 4 6 6 4 2 1 1 2 2 1 0 0 1 3 3 3 3 3 2 1 1 1 0 0 0 0 0
12 13 13 13 14 16 15 13 11 8 6 5 6 5 4 3 3 4 4 3 3 1 1 3 3 2 1 0 1 2 2 2 2 1 0 1 1 1 1 0 0 0 0
10 12 14 15 15 16 15 13 11 9 7 6 7 6 5 4 4 4 4 5 4 2 2 4 4 3 1 0 0 1 1 1 1 1 0 0 0 0 1 0 0 0 0
10 12 14 16 17 18 17 14 12 12 10 9 9 9 9 9 8 8 9 9 8 5 4 5 5 3 1 1 1 2 1 1 2 1 1 1 1 1 2 1 0 0 0
11 13 15 18 20 22 21 17 15 16 17 14 12 13 14 16 15 13 14 15 13 9 7 6 5 4 2 2 3 3 3 3 4 4 3 3 2 3 3 2 1 0 0
15 18 20 21 24 24 23 22 21 21 21 19 16 15 16 18 18 16 15 14 12 10 9 7 5 4 3 4 6 6 5 5 7 7 6 5 4 4 3 3 2 0 0
21 24 24 24 25 25 25 26 28 27 23 20 17 16 15 16 16 15 13 11 10 10 10 9 7 5 3 5 8 9 8 9 10 11 9 6 5 5 4 3 2 1 0
26 26 25 24 24 26 26 28 30 29 25 22 21 19 16 16 14 12 10 9 9 10 11 11 10 8 6 7 10 11 11 12 14 13 12 9 7 6 4 3 3 2 1
23 24 23 22 22 24 24 25 27 27 26 25 25 24 21 17 15 13 11 11 11 12 13 13 13 13 10 9 10 10 11 13 15 14 14 12 9 6 5 3 3 2 2
19 20 21 20 19 19 20 22 24 26 25 25 25 25 24 21 18 18 18 16 15 15 15 15 16 17 14 11 9 9 9 11 12 12 12 12 9 7 6 4 3 2 3
17 18 19 19 18 18 20 24 26 25 24 24 24 24 24 24 24 24 23 21 19 16 16 16 17 18 15 11 8 7 8 9 9 9 10 9 8 7 7 6 4 3 3
17 17 18 19 18 18 21 26 27 24 23 23 23 22 23 26 27 25 23 22 20 18 17 17 16 16 14 10 6 4 5 7 7 7 7 8 7 6 7 7 6 4 4
18 18 18 18 16 17 21 26 28 25 24 22 22 22 23 25 26 24 23 23 22 19 17 16 15 16 13 9 5 3 4 6 7 7 7 7 6 5 4 5 6 5 4
18 18 18 16 14 15 20 24 26 26 26 25 24 24 24 25 25 25 25 24 23 20 17 15 14 14 12 9 5 2 3 6 8 7 7 7 6 3 2 3 4 4 3
14 15 16 16 15 16 17 20 21 25 28 30 29 28 26 25 25 26 27 26 25 22 19 17 16 13 11 8 5 2 2 5 8 8 7 6 4 1 0 1 2 2 2
10 13 15 17 17 17 17 16 18 24 30 33 32 30 27 24 23 24 27 28 27 24 22 21 19 15 12 10 7 2 1 2 4 6 5 4 3 1 0 0 0 0 1
12 15 18 18 18 18 17 17 20 26 31 33 32 29 25 22 21 22 24 26 26 24 23 22 21 18 15 13 10 4 1 1 2 2 2 2 2 2 2 3 2 1 0
15 18 20 19 17 15 15 16 20 24 29 31 29 26 24 21 20 20 20 21 21 20 19 19 18 17 14 12 9 5 3 2 2 1 0 1 2 5 6 6 5 3 2
17 19 20 18 14 12 12 14 17 21 26 29 28 26 25 23 21 20 19 18 16 14 13 14 14 13 11 9 6 4 4 3 2 1 0 0 2 5 7 8 7 6 6

GEFSMW_con_probscp_318.txt.gz
Probability
0 1 2 3 2 1 0 0 0 0 0 0 0 0 0 0 0 0 0 0 1 0 0 1 0 0 0 0 0 0 0 0 0 0 0 0 0 0 0 0 0 0 0
0 1 2 3 2 1 0 0 0 0 0 0 0 1 1 1 1 1 1 2 2 2 2 2 1 1 1 1 0 0 0 0 0 0 0 0 0 0 0 0 0 0 0
0 0 1 3 2 1 0 1 0 0 0 1 1 2 2 2 2 3 4 4 5 5 4 3 2 3 3 2 0 0 0 0 0 0 0 0 0 0 0 0 0 0 0
0 0 1 2 2 1 0 0 0 0 1 2 3 3 3 3 3 4 5 4 4 5 4 2 1 2 2 1 0 0 0 0 0 0 0 0 0 0 0 0 0 0 0
0 0 1 2 1 0 0 0 1 1 2 3 3 3 3 3 4 4 4 3 2 2 1 0 0 0 0 0 0 0 0 1 1 1 0 0 0 0 0 0 0 0 0
0 0 1 2 1 1 1 1 2 3 3 3 2 3 3 4 4 4 3 2 1 0 0 0 0 0 0 0 0 0 0 1 1 1 0 0 0 0 1 1 1 1 0
0 0 1 3 3 3 3 3 3 3 3 3 3 3 3 4 5 4 3 2 1 1 0 0 0 0 0 0 0 0 0 0 0 0 0 1 1 1 2 2 2 2 1
0 0 2 4 5 6 7 5 4 3 3 3 3 3 4 5 5 5 3 3 2 2 1 0 0 0 0 0 0 0 0 0 0 0 1 2 2 3 3 3 3 3 3
1 1 3 4 6 9 10 7 4 3 3 3 3 3 3 4 3 3 3 3 3 3 2 1 0 0 0 0 0 0 0 0 0 0 1 2 3 3 3 3 3 3 3
3 3 3 4 6 9 10 8 5 4 3 3 3 3 3 3 2 2 2 3 3 3 3 1 1 1 2 1 1 1 0 0 0 0 2 3 3 3 3 3 3 3 3
5 5 5 6 8 10 10 9 7 4 3 3 3 3 3 3 3 3 3 3 3 3 4 3 2 3 4 3 2 1 0 0 1 2 4 4 4 3 3 3 3 3 3
8 7 6 8 11 11 10 9 7 5 3 3 3 3 3 3 2 2 3 3 3 4 4 3 2 3 4 3 3 2 1 1 3 5 6 5 4 3 3 3 3 3 3
8 7 7 10 12 11 9 9 8 7 5 4 4 4 4 3 2 2 3 4 4 4 4 3 2 3 4 4 4 3 3 3 4 6 6 6 5 4 3 3 4 3 3
7 7 8 11 12 11 9 9 10 9 7 6 5 5 5 5 4 2 3 4 5 5 4 3 3 4 5 6 6 6 5 4 4 5 6 6 6 6 5 4 5 4 3
8 9 10 13 12 10 9 10 10 9 8 7 7 7 6 5 3 2 1 3 3 4 4 5 5 6 7 7 8 7 6 6 5 4 5 5 6 7 5 4 5 5 4
9 10 11 12 11 10 10 11 11 10 9 9 9 10 9 7 5 3 2 1 2 3 5 6 8 9 8 7 6 5 7 7 6 5 4 4 5 6 5 4 3 3 3
8 10 11 11 10 11 13 14 14 14 13 11 11 12 13 12 10 8 5 3 3 3 5 7 9 10 10 6 3 2 5 7 7 6 6 6 6 6 6 5 4 3 2
8 9 11 10 10 11 14 16 17 17 16 14 12 12 14 15 15 13 9 6 5 6 7 7 8 9 9 5 1 1 3 6 7 7 8 9 8 6 6 7 7 6 5
9 10 12 11 10 11 14 16 17 17 15 12 10 11 13 15 15 14 12 10 10 10 9 7 7 8 9 5 2 1 4 6 8 9 9 9 7 5 5 6 8 8 7
10 11 12 12 12 12 13 15 16 15 12 9 8 9 12 14 14 14 13 14 14 12 8 6 6 8 9 6 2 2 5 8 10 11 10 8 5 3 2 4 7 7 6
9 11 12 13 13 12 13 14 15 14 11 9 7 8 10 12 13 13 14 15 16 14 9 6 6 7 7 5 3 2 4 7 8 10 9 7 3 1 1 2 4 4 4
6 9 12 13 12 11 10 12 13 13 12 10 7 7 9 11 13 14 16 17 18 17 13 10 8 7 7 5 3 2 2 4 6 7 7 5 2 0 0 0 1 1 1
5 7 10 12 11 9 9 9 9 11 12 11 8 7 10 12 15 17 18 18 18 18 17 15 12 11 10 8 6 4 2 1 3 4 4 3 1 0 0 0 0 0 0
4 6 9 11 10 9 8 6 6 9 11 10 9 9 12 15 18 20 19 18 17 17 18 17 15 13 12 10 8 6 2 0 1 2 2 1 0 0 0 0 0 0 0
4 6 8 9 8 8 7 4 4 6 8 9 9 10 12 15 18 19 18 16 14 13 13 14 13 13 12 9 6 4 2 0 0 0 1 1 0 0 1 2 1 1 0
4 5 7 8 7 7 6 4 2 3 5 7 9 10 11 14 17 18 16 13 11 8 7 9 11 11 11 8 3 2 1 0 0 1 2 2 1 1 2 3 2 2 1